FW9968 Weather Reports


time (UTC)temp
F
wind
direction
speed
knots
gust
knots
rain 1hr
in
rain 24hr
in
rain mn
in
humidity
%
barometer
mb
20260506192750 68 144 1.7 2.6 0.00 0.00 0.00 78 1007.2
20260506192247 68 162 0.9 2.6 0.00 0.00 0.00 78 1007.0
20260506191744 68 88 0.0 0.0 0.00 0.00 0.00 78 1007.0
20260506191240 68 218 1.7 1.7 0.00 0.00 0.00 78 1007.1
20260506190738 68 191 0.0 0.0 0.00 0.00 0.00 78 1007.1
20260506190234 67 91 0.0 0.0 0.00 0.00 0.00 79 1007.2
20260506185731 67 90 1.7 5.2 0.00 0.00 0.00 79 1007.1
20260506185228 67 103 0.0 1.7 0.00 0.00 0.00 79 1007.1
20260506184725 67 176 0.0 0.0 0.00 0.00 0.00 79 1007.6
20260506184222 67 167 0.9 1.7 0.00 0.00 0.00 79 1007.5
20260506183719 67 163 0.0 1.7 0.00 0.00 0.00 79 1007.5
20260506183215 67 4 0.0 0.0 0.00 0.00 0.00 79 1007.4
20260506182712 67 213 0.0 0.0 0.00 0.00 0.00 79 1007.5
20260506182209 67 143 0.0 0.0 0.00 0.00 0.00 79 1007.6
20260506181707 67 188 0.0 0.0 0.00 0.00 0.00 79 1007.4
20260506181204 67 142 0.0 0.0 0.00 0.00 0.00 78 1007.6
20260506180701 67 137 3.5 5.2 0.00 0.00 0.00 78 1007.6
20260506180157 67 237 1.7 2.6 0.00 0.00 0.00 78 1007.6
20260506175654 67 210 0.9 1.7 0.00 0.00 0.00 78 1007.5
20260506175151 67 259 0.9 1.7 0.00 0.00 0.00 78 1007.7
20260506174649 67 238 0.0 0.9 0.00 0.00 0.00 78 1007.8
20260506174145 67 123 2.6 4.3 0.00 0.00 0.00 78 1007.7
20260506173643 68 161 0.0 0.0 0.00 0.00 0.00 75 1008.0
20260506173134 68 81 2.6 6.1 0.00 0.00 0.00 74 1007.9
20260506172631 68 136 2.6 4.3 0.00 0.00 0.00 73 1008.0
20260506172127 69 213 0.9 0.9 0.00 0.00 0.00 72 1008.0
20260506171625 69 96 1.7 1.7 0.00 0.00 0.00 72 1008.2
20260506171123 69 341 0.0 0.0 0.00 0.00 0.00 73 1008.0
20260506170620 69 63 0.0 0.0 0.00 0.00 0.00 72 1007.8
20260506170117 70 176 0.0 0.9 0.00 0.00 0.00 72 1008.3
20260506165615 70 273 1.7 2.6 0.00 0.00 0.00 72 1008.0
20260506165111 71 227 2.6 5.2 0.00 0.00 0.00 71 1008.0
20260506164608 70 135 2.6 4.3 0.00 0.00 0.00 72 1008.3
20260506164106 69 145 0.0 0.0 0.00 0.00 0.00 75 1008.3
20260506163601 68 260 0.0 0.0 0.00 0.00 0.00 75 1008.5
20260506163058 69 117 2.6 5.2 0.00 0.00 0.00 72 1008.7
20260506162554 70 120 0.0 0.0 0.00 0.00 0.00 70 1008.8
20260506162051 70 143 0.0 0.0 0.00 0.00 0.00 70 1008.8
20260506161549 71 42 0.9 0.9 0.00 0.00 0.00 66 1009.0
20260506161045 72 242 0.0 0.9 0.00 0.00 0.00 64 1009.0
20260506160543 71 324 2.6 4.3 0.00 0.00 0.00 65 1009.0
20260506160040 71 332 0.9 1.7 0.00 0.00 0.00 66 1009.1
20260506155539 71 159 0.0 0.0 0.00 0.00 0.00 66 1009.2
20260506153715 70 162 0.9 1.7 0.00 0.00 0.00 66 1009.2
20260506153213 70 122 0.0 0.9 0.00 0.00 0.00 65 1009.0
20260506152709 70 248 0.0 0.0 0.00 0.00 0.00 65 1009.0
20260506152207 70 217 2.6 2.6 0.00 0.00 0.00 65 1009.2
20260506151706 70 251 2.6 5.2 0.00 0.00 0.00 65 1009.3
20260506151202 70 232 2.6 4.3 0.00 0.00 0.00 64 1009.3
20260506150658 70 154 0.0 0.9 0.00 0.00 0.00 64 1009.2
20260506150155 70 120 0.0 0.0 0.00 0.00 0.00 64 1009.2
20260506145652 70 320 6.1 11.3 0.00 0.00 0.00 63 1009.2
20260506145149 70 216 2.6 4.3 0.00 0.00 0.00 64 1009.3
20260506144647 70 178 0.0 0.0 0.00 0.00 0.00 64 1009.3
20260506144143 69 148 0.0 1.7 0.00 0.00 0.00 65 1009.2
20260506143641 69 135 1.7 2.6 0.00 0.00 0.00 64 1009.2
20260506143139 69 125 0.0 0.9 0.00 0.00 0.00 65 1009.3
20260506142637 69 259 0.9 1.7 0.00 0.00 0.00 64 1009.4
20260506142135 70 158 0.0 0.0 0.00 0.00 0.00 64 1009.4
20260506141632 70 306 0.0 0.0 0.00 0.00 0.00 64 1009.5
20260506141130 71 251 2.6 5.2 0.00 0.00 0.00 63 1009.4
20260506140628 71 359 0.0 1.7 0.00 0.00 0.00 63 1009.6
20260506140125 70 106 0.0 0.0 0.00 0.00 0.00 63 1009.1
20260506135622 70 163 0.0 0.0 0.00 0.00 0.00 65 1009.0
20260506135118 69 141 0.9 0.9 0.00 0.00 0.00 64 1008.9
20260506134614 69 179 0.0 1.7 0.00 0.00 0.00 65 1009.2
20260506134110 69 203 0.9 2.6 0.00 0.00 0.00 65 1009.3
20260506133608 69 119 3.5 6.1 0.00 0.00 0.00 65 1009.1
20260506133104 69 265 1.7 2.6 0.00 0.00 0.00 65 1009.1
20260506132602 70 114 0.0 0.9 0.00 0.00 0.00 64 1009.1
20260506132059 70 164 3.5 5.2 0.00 0.00 0.00 64 1009.2
20260506131556 70 239 1.7 1.7 0.00 0.00 0.00 64 1009.4
20260506131052 70 151 0.0 0.0 0.00 0.00 0.00 64 1009.6
20260506130549 70 192 2.6 5.2 0.00 0.00 0.00 64 1009.5
20260506130047 70 273 0.0 1.7 0.00 0.00 0.00 64 1009.6
20260506125545 69 181 2.6 4.3 0.00 0.00 0.00 65 1009.8
20260506125042 69 119 0.0 0.9 0.00 0.00 0.00 66 1009.6
20260506124540 69 221 0.0 0.0 0.00 0.00 0.00 67 1009.6
20260506124038 68 135 0.0 0.0 0.00 0.00 0.00 69 1009.4
20260506123535 68 128 0.0 0.9 0.00 0.00 0.00 69 1009.5
20260506123034 68 192 0.9 1.7 0.00 0.00 0.00 69 1009.5
20260506122530 68 246 1.7 8.7 0.00 0.00 0.00 68 1009.6
20260506122028 68 256 0.9 1.7 0.00 0.00 0.00 70 1009.7
20260506121525 67 145 0.9 2.6 0.00 0.00 0.00 71 1009.8
20260506121021 66 204 0.0 0.0 0.00 0.00 0.00 72 1009.7
20260506120519 66 287 3.5 5.2 0.00 0.00 0.00 73 1009.6
20260506120017 66 265 0.9 2.6 0.00 0.00 0.00 72 1009.6
20260506115514 67 156 0.0 0.9 0.00 0.00 0.00 72 1009.6
20260506115012 66 198 0.0 0.0 0.00 0.00 0.00 73 1009.7
20260506114509 65 95 0.9 1.7 0.00 0.00 0.00 74 1009.9
20260506114008 65 228 0.0 0.0 0.00 0.00 0.00 75 1009.5
20260506113505 65 216 1.7 2.6 0.00 0.00 0.00 76 1009.6
20260506113002 65 130 0.0 0.0 0.00 0.00 0.00 76 1009.7
20260506112459 64 71 1.7 5.2 0.00 0.00 0.00 77 1009.8
20260506111956 64 200 0.9 1.7 0.00 0.00 0.00 78 1009.6
20260506111454 64 206 0.0 0.9 0.00 0.00 0.00 78 1009.4
20260506110951 63 253 0.0 0.9 0.00 0.00 0.00 79 1009.8
20260506110449 63 118 0.9 1.7 0.00 0.00 0.00 79 1009.9
20260506105945 63 133 0.0 0.0 0.00 0.00 0.00 79 1009.7
20260506105442 63 308 0.9 1.7 0.00 0.00 0.00 79 1009.7
20260506104939 63 118 0.0 0.0 0.00 0.00 0.00 80 1009.7
20260506104437 63 215 0.0 0.9 0.00 0.00 0.00 80 1009.5
20260506103935 63 130 0.0 0.0 0.00 0.00 0.00 80 1009.6
20260506103432 63 22 0.0 0.9 0.00 0.00 0.00 80 1009.6
20260506102929 63 74 0.9 2.6 0.00 0.00 0.00 80 1009.6
20260506102427 63 152 0.0 0.9 0.00 0.00 0.00 80 1009.7
20260506101924 63 351 1.7 2.6 0.00 0.00 0.00 80 1009.7
20260506101420 63 205 0.0 0.0 0.00 0.00 0.00 80 1009.7
20260506100918 62 215 0.0 0.9 0.00 0.00 0.00 80 1009.6
20260506100416 62 183 0.0 0.0 0.00 0.00 0.00 81 1009.6
20260506095914 63 203 0.0 0.9 0.00 0.00 0.00 81 1009.4
20260506095412 63 204 0.0 0.0 0.00 0.00 0.00 81 1009.3
20260506094908 62 137 0.9 1.7 0.00 0.00 0.00 81 1009.2
20260506094407 63 138 0.0 0.9 0.00 0.00 0.00 82 1009.5
20260506093904 63 151 0.0 0.0 0.00 0.00 0.00 82 1009.5
20260506093401 63 138 0.0 0.0 0.00 0.00 0.00 82 1009.4
20260506092859 63 260 0.0 0.0 0.00 0.00 0.00 82 1009.3
20260506092357 63 153 0.0 0.0 0.00 0.00 0.00 83 1009.2
20260506091853 63 103 0.9 1.7 0.00 0.00 0.00 82 1009.4
20260506091351 63 136 0.0 0.0 0.00 0.00 0.00 82 1009.5
20260506090848 63 154 0.0 0.0 0.00 0.00 0.00 83 1009.5
20260506090346 63 160 0.0 0.0 0.00 0.00 0.00 82 1009.4
20260506085842 63 181 0.0 0.0 0.00 0.00 0.00 82 1009.7
20260506085338 63 160 0.9 1.7 0.00 0.00 0.00 82 1009.4
20260506084835 63 182 0.0 0.0 0.00 0.00 0.00 83 1009.6
20260506084332 63 120 0.0 0.0 0.00 0.00 0.00 83 1009.5
20260506083828 63 243 1.7 2.6 0.00 0.00 0.00 83 1009.7
20260506083326 63 143 0.0 0.0 0.00 0.00 0.00 83 1009.7
20260506082824 63 151 0.0 0.0 0.00 0.00 0.00 83 1009.8
20260506082320 63 171 0.0 0.0 0.00 0.00 0.00 83 1009.7
20260506081816 63 231 0.9 1.7 0.00 0.00 0.00 82 1009.9
20260506081314 63 108 0.0 0.0 0.00 0.00 0.00 83 1009.8
20260506080812 63 171 0.0 0.0 0.00 0.00 0.00 82 1009.8
20260506080308 63 207 0.0 0.0 0.00 0.00 0.00 82 1009.8
20260506073252 64 117 0.0 0.0 0.00 0.00 0.00 82 1009.8
20260506072749 64 119 0.0 0.0 0.00 0.00 0.00 82 1009.7
20260506072246 64 149 0.0 0.0 0.00 0.00 0.00 82 1009.8
20260506071744 64 244 0.0 0.9 0.00 0.00 0.00 82 1009.8
20260506071242 64 122 0.0 0.9 0.00 0.00 0.00 82 1009.9
20260506070738 64 195 0.0 0.0 0.00 0.00 0.00 82 1009.9
20260506070235 64 204 0.0 0.0 0.00 0.00 0.00 82 1010.0
20260506062212 64 284 4.3 7.8 0.00 0.00 0.00 81 1009.9
20260506061708 64 179 0.0 0.0 0.00 0.00 0.00 81 1010.0
20260506061206 64 342 0.0 0.9 0.00 0.00 0.00 81 1009.9
20260506060704 65 124 0.9 1.7 0.00 0.00 0.00 80 1010.0
20260506060201 65 208 0.0 0.9 0.00 0.00 0.00 80 1009.9
20260506051133 66 211 0.0 0.0 0.00 0.00 0.00 78 1010.5
20260506050631 66 183 0.0 0.0 0.00 0.00 0.00 78 1010.4
20260506050128 66 174 0.0 0.0 0.00 0.00 0.00 77 1010.5
20260506045121 66 140 2.6 5.2 0.00 0.00 0.00 77 1010.6
20260506044619 66 190 0.0 1.7 0.00 0.00 0.00 77 1010.5
20260506044116 66 154 0.0 0.9 0.00 0.00 0.00 77 1010.7
20260506043613 66 87 0.0 0.0 0.00 0.00 0.00 77 1010.5
20260506043111 66 190 0.0 0.0 0.00 0.00 0.00 76 1010.6
20260506042610 66 162 0.0 0.0 0.00 0.00 0.00 76 1010.5
20260506042107 66 306 4.3 6.1 0.00 0.00 0.00 76 1010.5
20260506041606 66 189 1.7 5.2 0.00 0.00 0.00 75 1010.4
20260506041102 66 191 0.0 0.0 0.00 0.00 0.00 75 1010.4
20260506040600 66 250 0.0 0.0 0.00 0.00 0.00 75 1010.6
20260506040056 66 173 0.0 0.0 0.00 0.00 0.00 75 1010.5
20260506035553 66 231 0.9 1.7 0.00 0.00 0.00 75 1010.6
20260506035050 67 128 2.6 2.6 0.00 0.00 0.00 75 1010.7
20260506034547 67 146 0.0 0.0 0.00 0.00 0.00 74 1010.3
20260506034044 67 142 1.7 4.3 0.00 0.00 0.00 74 1010.6
20260506033541 67 53 0.0 0.9 0.00 0.00 0.00 74 1010.5
20260506033038 67 131 0.9 1.7 0.00 0.00 0.00 74 1010.7
20260506032536 67 174 0.0 0.0 0.00 0.00 0.00 74 1010.7
20260506032032 67 219 0.0 0.9 0.00 0.00 0.00 74 1010.5
20260506031530 67 157 0.0 0.0 0.00 0.00 0.00 73 1010.5
20260506031027 67 22 0.0 0.9 0.00 0.00 0.00 73 1010.5
20260506030525 67 149 0.9 0.9 0.00 0.00 0.00 73 1010.6
20260506030022 67 173 4.3 7.0 0.00 0.00 0.00 72 1010.6
20260506025519 68 230 0.0 1.7 0.00 0.00 0.00 72 1010.5
20260506025015 68 51 2.6 4.3 0.00 0.00 0.00 71 1010.5
20260506024512 68 97 0.0 0.0 0.00 0.00 0.00 72 1010.5
20260506024008 68 164 0.0 0.0 0.00 0.00 0.00 71 1010.7
20260506023504 68 240 1.7 2.6 0.00 0.00 0.00 71 1010.7
20260506023002 68 127 0.0 0.9 0.00 0.00 0.00 71 1010.8
20260506022459 68 204 0.0 0.0 0.00 0.00 0.00 70 1010.6
20260506021957 68 168 0.0 0.0 0.00 0.00 0.00 70 1010.7
20260506021454 68 133 0.0 0.0 0.00 0.00 0.00 69 1010.5
20260506020951 68 154 0.0 0.0 0.00 0.00 0.00 68 1010.8
20260506020449 68 229 1.7 6.1 0.00 0.00 0.00 68 1010.7
20260506015946 68 63 0.0 0.0 0.00 0.00 0.00 67 1010.6
20260506015443 69 116 0.0 1.7 0.00 0.00 0.00 66 1010.6
20260506014940 69 190 0.0 0.9 0.00 0.00 0.00 65 1010.5
20260506014437 69 219 0.0 0.9 0.00 0.00 0.00 65 1010.4
20260506013933 69 138 0.0 0.0 0.00 0.00 0.00 64 1010.4
20260506013432 69 161 0.0 0.0 0.00 0.00 0.00 64 1010.4
20260506012927 69 171 0.0 0.9 0.00 0.00 0.00 63 1010.4
20260506012424 69 206 0.0 0.9 0.00 0.00 0.00 62 1010.2
20260506011921 69 246 3.5 5.2 0.00 0.00 0.00 62 1010.6
20260506011418 70 173 0.0 0.9 0.00 0.00 0.00 61 1010.3
20260506010915 70 162 0.0 0.9 0.00 0.00 0.00 61 1010.3
20260506010414 70 96 0.0 0.0 0.00 0.00 0.00 60 1010.4
20260506005910 70 197 0.0 0.0 0.00 0.00 0.00 60 1010.1
20260506005408 70 131 0.0 0.0 0.00 0.00 0.00 60 1010.3
20260506004903 70 285 0.0 0.9 0.00 0.00 0.00 60 1009.9
20260506004401 70 188 0.0 0.0 0.00 0.00 0.00 60 1009.8
20260506003857 71 248 0.0 0.0 0.00 0.00 0.00 60 1009.9
20260506003353 71 133 0.0 0.0 0.00 0.00 0.00 60 1009.8
20260506002850 71 225 0.0 0.0 0.00 0.00 0.00 60 1009.8
20260506002346 71 327 0.0 0.9 0.00 0.00 0.00 60 1009.7
20260506001841 71 133 0.9 2.6 0.00 0.00 0.00 60 1009.6
20260506001339 71 142 0.0 0.0 0.00 0.00 0.00 60 1009.7
20260506000836 71 177 0.0 0.9 0.00 0.00 0.00 60 1009.8
20260506000334 71 22 0.0 0.9 0.00 0.00 0.00 59 1009.6
20260505235830 71 163 0.0 0.0 0.00 0.00 0.00 59 1009.7
20260505235328 72 226 2.6 5.2 0.00 0.00 0.00 59 1009.6
20260505234824 72 169 0.0 0.0 0.00 0.00 0.00 59 1009.6
20260505234322 72 190 0.0 0.9 0.00 0.00 0.00 58 1009.7
20260505233819 73 138 2.6 5.2 0.00 0.00 0.00 57 1009.5
20260505233317 73 80 0.0 0.0 0.00 0.00 0.00 56 1009.6
20260505232814 73 139 0.0 0.0 0.00 0.00 0.00 55 1009.3
20260505232311 73 147 0.0 0.0 0.00 0.00 0.00 55 1009.3
20260505231808 74 195 0.0 0.0 0.00 0.00 0.00 54 1009.3
20260505231306 74 102 0.0 0.0 0.00 0.00 0.00 54 1009.4
20260505230804 74 135 0.9 0.9 0.00 0.00 0.00 53 1009.3
20260505230301 75 152 0.9 1.7 0.00 0.00 0.00 52 1009.2
20260505225757 75 205 0.0 0.0 0.00 0.00 0.00 51 1009.1
20260505225255 76 180 0.0 0.0 0.00 0.00 0.00 49 1009.1
20260505224749 76 164 0.0 0.0 0.00 0.00 0.00 47 1009.1
20260505224247 76 262 0.9 2.6 0.00 0.00 0.00 46 1009.1
20260505223745 77 198 0.9 2.6 0.00 0.00 0.00 45 1009.1
20260505223241 78 123 0.0 0.0 0.00 0.00 0.00 45 1009.1
20260505222737 78 145 0.0 0.0 0.00 0.00 0.00 43 1009.2
20260505222233 79 109 4.3 5.2 0.00 0.00 0.00 42 1008.9
20260505221731 79 66 0.0 0.9 0.00 0.00 0.00 42 1008.8
20260505221227 79 171 0.0 0.9 0.00 0.00 0.00 42 1008.7
20260505220724 80 201 0.0 0.9 0.00 0.00 0.00 41 1008.8
20260505220222 80 200 1.7 2.6 0.00 0.00 0.00 40 1008.9
20260505215720 80 139 3.5 6.1 0.00 0.00 0.00 40 1008.7
20260505215217 80 104 0.9 1.7 0.00 0.00 0.00 39 1008.7
20260505214715 80 202 0.0 0.0 0.00 0.00 0.00 40 1008.7
20260505214212 80 113 1.7 1.7 0.00 0.00 0.00 39 1008.6
20260505213709 80 80 0.9 2.6 0.00 0.00 0.00 38 1008.5
20260505213206 81 220 3.5 4.3 0.00 0.00 0.00 37 1008.7
20260505212702 81 162 0.9 1.7 0.00 0.00 0.00 38 1008.6
20260505212200 82 170 1.7 2.6 0.00 0.00 0.00 37 1008.5
20260505211656 82 155 3.5 4.3 0.00 0.00 0.00 36 1008.5
20260505211154 82 177 0.9 2.6 0.00 0.00 0.00 35 1008.5
20260505210650 82 102 0.9 2.6 0.00 0.00 0.00 36 1008.4
20260505210147 82 252 0.9 2.6 0.00 0.00 0.00 36 1008.4
20260505205644 83 159 0.0 0.9 0.00 0.00 0.00 37 1008.2
20260505205143 82 188 2.6 4.3 0.00 0.00 0.00 35 1008.4
20260505204639 83 285 4.3 5.2 0.00 0.00 0.00 35 1008.0
20260505204137 83 224 0.0 0.9 0.00 0.00 0.00 35 1008.2
20260505203634 83 211 0.0 0.9 0.00 0.00 0.00 35 1008.1
20260505203131 83 247 0.9 2.6 0.00 0.00 0.00 36 1008.3
20260505202626 84 137 0.0 0.9 0.00 0.00 0.00 35 1008.3
20260505202122 84 181 1.7 2.6 0.00 0.00 0.00 36 1008.0
20260505201619 84 121 0.9 1.7 0.00 0.00 0.00 36 1008.3
20260505201117 84 257 0.9 0.9 0.00 0.00 0.00 37 1008.4
20260505200615 84 175 2.6 5.2 0.00 0.00 0.00 36 1008.3
20260505200111 84 183 1.7 5.2 0.00 0.00 0.00 36 1008.3
20260505195608 85 353 0.9 1.7 0.00 0.00 0.00 37 1008.4
20260505195105 85 269 0.9 1.7 0.00 0.00 0.00 37 1008.4
20260505194602 85 221 0.9 1.7 0.00 0.00 0.00 37 1008.5
20260505194058 85 84 1.7 2.6 0.00 0.00 0.00 36 1008.5
20260505193555 85 236 1.7 1.7 0.00 0.00 0.00 37 1008.8
20260505193052 85 158 2.6 5.2 0.00 0.00 0.00 37 1008.2